Home   Weather   Cuxhaven   Past weeks

Flag for Germany Past Weather in Cuxhaven, Lower Saxony, Germany — Yesterday and Last 2 Weeks

Now
39 °F

Broken clouds.


Feels Like: 31 °F
Forecast: 43 / 45 °F
Wind: 15 mph from Southwest

Location: Nordholz

Current Time: Dec 7, 2016 at 1:43:24 pm

Latest Report: Dec 7, 2016 at 12:20 pm


Visibility: 4 mi

Pressure: 30.30 "Hg

Humidity: 87%

Dew Point: 36 °F

Location of CuxhavenLocation

Past Weather in Cuxhaven — Graph

°F

Cuxhaven Temperature Yesterday

Maximum temperature yesterday: 37 °F (at 2:20 pm)
Minimum temperature yesterday: 32 °F (at 12:20 am)
Average temperature yesterday: 34 °F

High & Low Weather Summary for the Past Weeks

 TemperatureHumidityPressure
High55 °F (Nov 22, 12:20 pm)100% (Nov 23, 8:20 pm)30.57 "Hg (Nov 23, 8:20 pm)
Low23 °F (Dec 5, 2:20 am)53% (Dec 2, 12:20 pm)29.83 "Hg (Nov 22, 12:20 pm)
Average37 °F87%30.26 "Hg
* Reported Nov 22 12:20 pm — Dec 7 12:20 pm, Cuxhaven, Weather by CustomWeather, © 2016

Note: Actual official high and low records may vary slightly from our data, if they occured in-between our weather recording intervals... More about our weather records

Advertising

Cuxhaven Weather History for the Previous 24 Hours

Scroll right to see more
 ConditionsComfort  
Time TempWeatherWind HumidityBarometerVisibility
12:20 pm
Wed, Dec 7
39 °FBroken clouds.15 mph87%30.30 "Hg4 mi
11:20 am39 °FLight rain. Mostly cloudy.15 mph81%30.33 "Hg4 mi
10:20 am39 °FLight rain. Mostly cloudy.14 mph81%30.33 "Hg4 mi
9:20 am36 °FLight rain. Cloudy.13 mph81%30.33 "HgN/A
8:45 am36 °FLight freezing rain. Mostly cloudy.10 mph81%30.33 "HgN/A
8:20 am34 °FMostly cloudy.8 mph81%30.36 "HgN/A
7:20 am32 °FMostly cloudy.9 mph87%30.36 "HgN/A
6:20 am34 °FOvercast.9 mph81%30.39 "HgN/A
5:20 am32 °FPassing clouds.10 mph80%30.39 "HgN/A
4:20 am32 °FPassing clouds.9 mph75%30.42 "HgN/A
3:20 am32 °FPassing clouds.8 mph75%30.45 "HgN/A
2:20 am34 °FPassing clouds.12 mph70%30.45 "HgN/A
1:20 am36 °FPassing clouds.10 mph70%30.45 "HgN/A
12:20 am34 °FPassing clouds.7 mph75%30.48 "HgN/A
11:20 pm
Tue, Dec 6
34 °FPassing clouds.3 mph81%30.48 "HgN/A
10:20 pm32 °FPassing clouds.6 mph80%30.48 "HgN/A
9:20 pm34 °FOvercast.7 mph81%30.51 "HgN/A
8:20 pm34 °FPassing clouds.6 mph75%30.51 "HgN/A
6:20 pm34 °FPassing clouds.6 mph81%30.48 "HgN/A
5:20 pm34 °FPassing clouds.6 mph75%30.48 "HgN/A
4:20 pm36 °FPartly cloudy.7 mph70%30.48 "HgN/A
3:20 pm37 °FBroken clouds.8 mph70%30.45 "HgN/A
2:20 pm37 °FPartly sunny.8 mph75%30.45 "HgN/A
1:20 pm36 °FPartly sunny.6 mph75%30.45 "HgN/A
Weather by CustomWeather, © 2016

See weather overviewHow to use our weather pages